Weather History for Grand Forks, ND

Change the Weather History Date:

Tuesday, July 2, 2013

  Actual Average Record
Temperature  
Mean Temperature 74 °F 68 °F  
Max Temperature 88 °F 80 °F 94 °F (1949)
Min Temperature 59 °F 56 °F 41 °F (1945)
Degree Days  
Heating Degree Days 0 1  
Month to date heating degree days 0 3  
Since 1 June heating degree days 77 106  
Since 1 July heating degree days 0 3  
Cooling Degree Days 9 4  
Month to date cooling degree days 16 8  
Year to date cooling degree days 138 100  
Since 1 June cooling degree days 129 83  
Growing Degree Days 23 (Base 50)    
Moisture  
Dew Point 56 °F    
Average Humidity 58    
Maximum Humidity 90    
Minimum Humidity 26    
Precipitation  
Precipitation 0.00 in 0.12 in 2.00 in (1979)
Month to date precipitation 0.00 0.24  
Year to date precipitation 11.27 9.44  
Snow  
Snow 0.00 in 0.00 in - ()
Month to date snowfall 0.0 0.0  
Since 1 June snowfall 0.0 0.0  
Since 1 July snowfall 0.0 0.0  
Snow Depth -    
Sea Level Pressure  
Sea Level Pressure 30.07 in    
Wind  
Wind Speed 2 mph (SSW)    
Max Wind Speed 8 mph    
Max Gust Speed 10 mph    
Visibility 9 miles    
Events      
T = Trace of Precipitation, MM = Missing Value Source: NWS Daily Summary

Daily Weather History Graph

Daily Weather History Graph

Search for Another Location

Airport:

Trip Planner

Search our weather history database for the weather conditions in past years. The results will help you decide how hot, cold, wet, or windy it might be!

Date:

Astronomy

Jul. 02, 2013 Rise Set
Actual Time 5:34 AM CDT 9:31 PM CDT
Civil Twilight 4:53 AM CDT 10:11 PM CDT
Nautical Twilight 3:57 AM CDT 11:07 PM CDT
Astronomical Twilight 2:26 AM CDT 12:36 AM CDT
Moon 1:51 AM CDT (7/2) 4:35 PM CDT (7/2)
Length of Visible Light 17h 18m
Length of Day
15h 56m
Waning Crescent, 26% of the Moon is Illuminated
Jul 2
Waning Crescent
Jul 8
New
Jul 15
First Quarter
Jul 22
Full
Jul 29
Last Quarter

Hourly Weather History & Observations

Time (CDT) Temp. Heat Index Dew Point Humidity Pressure Visibility Wind Dir Wind Speed Gust Speed Precip Events Conditions
12:53 AM 64.9 °F - 59.0 °F 81% 30.12 in 8.0 mi Calm Calm - N/A   Scattered Clouds
1:53 AM 62.1 °F - 57.0 °F 84% 30.12 in 8.0 mi Calm Calm - N/A   Clear
2:53 AM 59.0 °F - 55.9 °F 90% 30.11 in 8.0 mi SSW 3.5 mph - N/A   Clear
3:53 AM 60.1 °F - 55.9 °F 86% 30.11 in 7.0 mi Calm Calm - N/A   Clear
4:53 AM 62.1 °F - 57.0 °F 84% 30.11 in 6.0 mi WSW 3.5 mph - N/A   Haze
5:53 AM 61.0 °F - 57.0 °F 87% 30.11 in 7.0 mi Calm Calm - N/A   Mostly Cloudy
6:53 AM 63.0 °F - 59.0 °F 87% 30.12 in 7.0 mi Calm Calm - N/A   Mostly Cloudy
7:53 AM 70.0 °F - 60.1 °F 71% 30.11 in 10.0 mi Calm Calm - N/A   Scattered Clouds
9:53 AM 79.0 °F - 60.1 °F 52% 30.11 in 10.0 mi North 3.5 mph - N/A   Clear
10:53 AM 82.0 °F 82.7 °F 61.0 °F 49% 30.10 in 10.0 mi NNW 3.5 mph - N/A   Clear
11:53 AM 84.0 °F 83.3 °F 57.0 °F 40% 30.09 in 10.0 mi NNW 3.5 mph - N/A   Partly Cloudy
12:53 PM 86.0 °F - 52.0 °F 31% 30.09 in 10.0 mi Variable 3.5 mph - N/A   Scattered Clouds
1:53 PM 87.1 °F - 48.9 °F 27% 30.07 in 10.0 mi Calm Calm - N/A   Mostly Cloudy
2:53 PM 86.0 °F - 48.9 °F 28% 30.06 in 10.0 mi Calm Calm - N/A   Mostly Cloudy
3:53 PM 86.0 °F - 52.0 °F 31% 30.05 in 10.0 mi Calm Calm - N/A   Mostly Cloudy
4:53 PM 87.1 °F - 50.0 °F 28% 30.03 in 10.0 mi ESE 4.6 mph - N/A   Mostly Cloudy
5:53 PM 87.1 °F - 51.1 °F 29% 30.02 in 10.0 mi ESE 3.5 mph - N/A   Scattered Clouds
6:53 PM 84.0 °F 82.6 °F 54.0 °F 35% 30.01 in 10.0 mi Calm Calm - N/A   Mostly Cloudy
7:53 PM 82.9 °F 83.2 °F 60.1 °F 46% 30.00 in 10.0 mi Calm Calm - N/A   Scattered Clouds
8:53 PM 77.0 °F - 62.1 °F 60% 29.99 in 10.0 mi SSW 3.5 mph - N/A   Scattered Clouds
9:53 PM 72.0 °F - 62.1 °F 71% 30.00 in 8.0 mi SSW 5.8 mph - N/A   Scattered Clouds
10:53 PM 69.1 °F - 60.1 °F 73% 29.99 in 10.0 mi SSW 4.6 mph - N/A   Partly Cloudy
11:53 PM 68.0 °F - 57.9 °F 70% 29.99 in 10.0 mi South 4.6 mph - N/A   Clear